TimePST,TemperatureF,Dew PointF,Humidity,Sea Level PressureIn,VisibilityMPH,Wind Direction,Wind SpeedMPH,Gust SpeedMPH,PrecipitationIn,Events,Conditions,WindDirDegrees,DateUTC
12:53 AM,55.9,46.9,72,30.05,10.0,Calm,Calm,-,0.00,,Overcast,0,2014-01-27 08:53:00
1:53 AM,55.0,46.9,74,30.04,10.0,Calm,Calm,-,N/A,,Scattered Clouds,0,2014-01-27 09:53:00
2:53 AM,53.1,46.9,80,30.01,10.0,Calm,Calm,-,0.00,,Partly Cloudy,0,2014-01-27 10:53:00
3:53 AM,52.0,46.0,80,30.00,10.0,Calm,Calm,-,N/A,,Clear,0,2014-01-27 11:53:00
4:53 AM,51.1,46.0,83,29.99,10.0,ENE,3.5,-,N/A,,Clear,70,2014-01-27 12:53:00
5:53 AM,48.9,45.0,86,30.02,10.0,Calm,Calm,-,N/A,,Clear,0,2014-01-27 13:53:00
6:53 AM,48.0,44.1,86,30.04,10.0,SE,3.5,-,N/A,,Clear,130,2014-01-27 14:53:00
7:53 AM,51.1,44.1,77,30.07,10.0,Calm,Calm,-,N/A,,Clear,0,2014-01-27 15:53:00
8:53 AM,55.9,45.0,67,30.09,8.0,Calm,Calm,-,N/A,,Clear,0,2014-01-27 16:53:00
9:53 AM,60.1,44.1,55,30.08,10.0,Calm,Calm,-,N/A,,Clear,0,2014-01-27 17:53:00
10:53 AM,62.1,45.0,53,30.06,9.0,Calm,Calm,-,N/A,,Clear,0,2014-01-27 18:53:00
11:53 AM,64.9,45.0,48,30.04,10.0,Variable,4.6,-,N/A,,Clear,0,2014-01-27 19:53:00
12:53 PM,66.9,45.0,45,30.01,10.0,Variable,3.5,-,N/A,,Clear,0,2014-01-27 20:53:00
1:53 PM,69.1,45.0,42,29.98,10.0,Calm,Calm,-,N/A,,Clear,0,2014-01-27 21:53:00
2:53 PM,71.1,44.1,38,29.96,10.0,NW,4.6,-,N/A,,Clear,310,2014-01-27 22:53:00
3:53 PM,70.0,44.1,39,29.97,10.0,West,3.5,-,N/A,,Clear,280,2014-01-27 23:53:00
4:53 PM,66.0,48.9,54,29.99,10.0,West,6.9,-,N/A,,Mostly Cloudy,270,2014-01-28 00:53:00
5:53 PM,63.0,50.0,63,30.01,10.0,Calm,Calm,-,N/A,,Mostly Cloudy,0,2014-01-28 01:53:00
6:53 PM,61.0,50.0,67,30.03,10.0,Variable,3.5,-,N/A,,Mostly Cloudy,0,2014-01-28 02:53:00
7:53 PM,59.0,50.0,72,30.04,10.0,West,3.5,-,N/A,,Clear,280,2014-01-28 03:53:00
8:53 PM,57.0,48.9,74,30.05,10.0,SE,3.5,-,N/A,,Clear,130,2014-01-28 04:53:00
9:53 PM,55.0,48.9,80,30.06,10.0,Calm,Calm,-,N/A,,Clear,0,2014-01-28 05:53:00
10:53 PM,52.0,46.9,83,30.06,10.0,Calm,Calm,-,N/A,,Clear,0,2014-01-28 06:53:00
11:53 PM,52.0,48.0,86,30.06,10.0,Calm,Calm,-,N/A,,Clear,0,2014-01-28 07:53:00